This is the latest recevied weather packets stored in our database for station/object SQ5LTL-2. If no packets are shown the sender has not sent any weather packets the latest 10 day(s).
| Time | Temp. | Humidity | Pressure | Rain* | Wind** | Luminosity | Snow |
|---|---|---|---|---|---|---|---|
| 1777479626 | 6.67° C | 47% | 1028.8 hPa | 0 mm | - | 54 W/m² | - |
| 1777479326 | 6.67° C | 46% | 1028.8 hPa | 0 mm | - | 55 W/m² | - |
| 1777479023 | 6.67° C | 46% | 1028.8 hPa | 0 mm | - | 54 W/m² | - |
| 1777478722 | 6.67° C | 45% | 1028.8 hPa | 0 mm | - | 68 W/m² | - |
| 1777478422 | 6.67° C | 45% | 1028.9 hPa | 0 mm | - | 77 W/m² | - |
| 1777478119 | 6.67° C | 45% | 1028.9 hPa | 0 mm | - | 64 W/m² | - |
| 1777477817 | 6.67° C | 45% | 1028.8 hPa | 0 mm | - | 53 W/m² | - |
| 1777477517 | 6.67° C | 45% | 1028.7 hPa | 0 mm | - | 58 W/m² | - |
| 1777477236 | 7.22° C | 45% | 1028.8 hPa | 0 mm | - | 67 W/m² | - |
| 1777476933 | 6.67° C | 46% | 1028.7 hPa | 0 mm | - | 75 W/m² | - |
| 1777476633 | 7.22° C | 45% | 1028.6 hPa | 0 mm | - | 74 W/m² | - |
| 1777476330 | 7.22° C | 46% | 1028.6 hPa | 0 mm | - | 71 W/m² | - |
| 1777476030 | 7.22° C | 45% | 1028.6 hPa | 0 mm | - | 54 W/m² | - |
| 1777475728 | 7.22° C | 45% | 1028.6 hPa | 0 mm | - | 53 W/m² | - |
| 1777475427 | 7.78° C | 44% | 1028.6 hPa | 0 mm | - | 80 W/m² | - |
| 1777475126 | 7.78° C | 43% | 1028.5 hPa | 0 mm | - | 138 W/m² | - |
| 1777474823 | 7.78° C | 43% | 1028.5 hPa | 0 mm | - | 255 W/m² | - |
| 1777474523 | 7.78° C | 42% | 1028.5 hPa | 0 mm | - | 233 W/m² | - |
| 1777474221 | 7.78° C | 42% | 1028.5 hPa | 0 mm | - | 315 W/m² | - |
| 1777473920 | 7.78° C | 42% | 1028.6 hPa | 0 mm | - | 306 W/m² | - |
| 1777473617 | 7.78° C | 42% | 1028.4 hPa | 0 mm | - | 355 W/m² | - |
| 1777473316 | 7.78° C | 42% | 1028.4 hPa | 0 mm | - | 330 W/m² | - |
| 1777473034 | 7.22° C | 43% | 1028.5 hPa | 0 mm | - | 320 W/m² | - |
| 1777472733 | 7.22° C | 44% | 1028.7 hPa | 0 mm | - | 316 W/m² | - |
| 1777472431 | 6.67° C | 46% | 1028.7 hPa | 0 mm | - | 317 W/m² | - |
* Rain latest hour (hover to see other rain measurements)
** Current wind speed in m/s (hover to see current wind gust speed)